CAPE
877 870 950 923 899 761 652 607 584 650 728 782 798 714 628 451 278 244 132 40 6 0 0 0 0 0 0 217 312 320 426 464 432 506 187 29 0 0 0 0 0 0 63
1336 891 966 922 862 793 737 723 762 754 790 764 728 533 447 304 178 74 61 39 26 0 0 0 0 0 0 0 295 434 468 512 494 429 284 88 0 0 0 0 103 0 0
1282 1031 894 803 875 889 925 975 949 945 856 606 370 257 216 158 68 78 111 96 54 0 0 0 0 186 244 242 171 545 505 461 404 330 95 0 0 0 0 0 0 0 0
1212 950 831 863 921 973 981 996 993 995 811 658 325 189 158 59 56 38 74 99 52 0 0 0 30 235 269 465 303 531 456 341 277 20 0 0 0 0 0 0 0 0 0
1071 840 902 826 882 1010 1071 1066 1050 957 777 574 368 225 187 79 27 46 217 122 69 41 0 0 18 227 273 293 445 450 382 149 23 0 0 0 0 3 11 14 19 14 0
1069 965 837 814 906 1171 1294 1255 1176 944 750 486 403 333 173 54 51 105 236 147 121 46 0 0 0 0 105 248 317 182 14 0 0 0 0 0 0 14 21 31 44 42 47
1019 765 641 651 995 1271 1231 1220 1092 902 661 509 402 285 208 166 124 225 260 214 140 64 3 0 3 12 25 13 11 0 0 0 0 0 0 0 4 12 0 0 16 14 0
738 519 484 556 605 608 449 598 906 776 570 528 429 297 265 273 268 258 232 211 162 120 97 51 75 40 13 3 0 0 0 0 0 0 0 0 140 0 0 0 0 0 0
496 404 275 207 211 173 325 652 639 503 467 437 377 304 276 258 251 225 212 210 182 143 123 98 93 86 7 0 0 0 0 0 0 0 0 0 64 0 0 1 0 0 0
347 296 134 69 69 138 263 389 389 344 350 291 231 169 134 148 159 172 124 231 217 226 218 157 16 47 0 0 0 0 0 0 0 0 0 0 29 9 8 1 0 0 0
291 266 133 82 72 187 275 239 268 311 260 184 143 103 45 39 16 19 95 150 244 244 129 3 0 0 0 0 0 0 0 0 0 0 0 0 0 11 23 16 0 0 0
128 97 16 83 90 257 205 168 176 170 87 60 42 28 18 15 1 0 25 156 179 21 0 0 0 0 0 0 0 0 0 0 0 0 0 0 0 0 6 4 0 0 0
72 26 3 58 92 193 226 150 101 51 42 25 5 1 13 26 33 45 18 22 9 0 0 0 0 7 4 0 0 0 0 0 0 0 0 0 0 0 26 22 0 0 0
1 3 4 22 70 255 140 53 26 7 0 54 22 58 129 117 174 150 125 54 25 19 20 12 19 0 2 5 0 0 0 0 0 0 0 0 0 0 27 31 9 1 0
7 5 0 0 118 208 63 4 0 0 31 94 228 209 125 181 161 73 74 60 40 30 26 20 21 20 6 0 0 0 0 0 0 0 0 0 0 0 0 22 22 10 7
0 0 7 97 160 159 33 0 0 0 139 251 282 294 277 273 169 48 35 31 26 39 41 39 30 0 0 0 0 0 0 0 0 0 0 0 0 0 1 7 6 6 4
2 52 66 67 170 77 0 0 3 94 289 398 389 364 283 168 91 53 33 25 34 40 52 10 0 0 0 0 0 0 0 0 0 0 0 0 0 0 0 0 0 0 0
12 40 125 180 230 10 0 0 72 233 344 406 295 204 158 109 52 42 40 37 37 24 1 0 0 0 0 0 0 0 0 0 0 0 0 0 0 0 0 0 0 0 0
19 58 176 256 126 6 0 19 170 342 355 280 288 239 70 22 40 31 19 2 0 1 0 0 0 0 0 0 0 0 0 0 0 0 0 0 0 0 0 0 0 6 1
36 77 129 252 249 22 9 50 189 293 297 283 238 50 16 12 12 0 0 0 0 0 0 0 0 0 0 0 0 0 0 0 0 0 0 0 0 0 0 0 0 0 0
109 196 253 357 370 44 54 139 238 242 281 199 110 51 51 47 2 0 0 0 0 0 0 0 0 0 0 0 0 0 0 0 0 0 0 0 0 0 0 0 0 0 0
195 253 245 179 147 51 81 158 207 214 190 135 67 50 62 38 0 0 0 0 0 0 0 0 0 0 0 0 0 0 0 0 0 0 0 0 0 0 0 0 0 0 0
132 267 287 175 43 64 119 179 188 167 130 85 64 82 78 3 0 0 0 0 0 0 0 0 0 0 0 0 0 0 0 0 0 0 0 0 0 0 0 0 0 0 0
181 234 243 180 69 83 167 233 276 144 67 58 94 72 3 0 0 0 0 0 0 0 0 0 0 0 0 0 0 0 0 0 0 0 0 0 0 0 0 0 0 0 0
254 204 215 126 67 119 176 259 177 121 98 107 34 4 0 0 0 0 2 0 4 3 6 1 0 0 0 0 0 0 0 0 0 0 0 0 0 0 0 0 0 0 0
219 266 190 106 140 147 227 236 177 166 84 4 0 0 0 0 2 12 12 3 11 12 12 8 0 0 0 0 0 0 0 0 0 0 0 0 0 0 0 0 0 0 0
CIN
-34 -8 0 0 0 -11 -20 -12 -8 -5 -2 -2 -2 -6 -8 -23 -36 -42 -54 -88 -98 0 0 0 0 0 0 -18 -8 -8 -9 -15 -7 0 -7 -13 0 0 0 0 0 0 -25
-4 -13 0 0 -1 -12 -17 -14 -11 -11 -12 -5 -2 -7 -14 -28 -49 -78 -92 -102 -114 0 0 0 0 0 0 0 -14 -6 -7 -29 -1 -1 -3 -17 0 0 0 0 -20 0 0
-3 -8 -1 0 0 -1 -5 -2 0 -1 -8 -15 -12 -22 -34 -59 -101 -97 -77 -64 -89 0 0 0 0 -53 -53 -54 -46 -4 -4 -5 -5 -6 -29 0 0 0 0 0 0 0 0
-3 -6 -4 0 -1 -6 -14 -12 -11 0 -28 -2 -56 -64 -55 -119 -120 -132 -119 -81 -103 0 0 0 -130 -47 -66 -40 -32 -8 -17 -24 -29 -40 0 0 0 0 0 0 0 0 0
-2 -4 0 -2 -4 -8 -7 -5 -4 -3 -11 -6 -38 -47 -60 -118 -180 -156 -64 -87 -93 -144 0 0 -135 -64 -76 -67 -31 -26 -29 -51 -18 0 0 0 0 -6 -24 -36 -44 -26 0
0 -1 -3 -11 0 0 0 0 0 -27 -7 -24 -34 -37 -61 -146 -149 -111 -35 -57 -58 -167 0 0 0 -28 -120 -80 -58 -63 -59 0 0 0 0 0 0 -20 -25 -20 -11 -10 -7
0 -11 -10 -20 -2 0 -2 0 -1 -14 0 -40 -11 -23 -53 -77 -113 -53 -41 -60 -87 -148 -36 -30 -41 -192 -164 -173 -123 0 0 0 0 0 0 0 -19 -14 0 0 -25 -20 0
-5 -11 -20 -29 -29 -24 -29 -31 -41 -5 -66 -44 -8 -32 -38 -40 -34 -38 -53 -89 -112 -94 -91 -137 -77 -145 -207 -108 0 0 0 0 0 0 0 0 -10 0 0 0 0 0 0
-25 -3 0 -4 -26 -32 -35 -34 -19 -27 -90 -22 -11 -23 -36 -50 -43 -40 -58 -94 -107 -112 -110 -92 -151 -126 -156 -11 0 0 0 0 0 0 0 0 0 0 0 0 0 0 0
-3 0 0 -23 -8 -24 -20 -16 -37 -95 -74 -49 -55 -84 -128 -108 -95 -78 -128 -84 -77 -91 -107 -112 -215 -172 0 0 0 0 0 0 0 0 0 0 -1 0 0 0 0 0 0
-1 0 0 0 -6 -16 -22 -20 -84 -118 -95 -107 -130 -188 -309 -341 -436 -352 -149 -106 -75 -103 -129 -53 0 0 0 0 0 0 0 0 0 0 0 0 0 0 0 0 0 0 0
-1 -2 -25 -1 -4 -3 -14 -67 -142 -130 -190 -258 -315 -362 -411 -395 -178 0 -239 -100 -92 -76 0 0 0 0 0 0 0 0 0 0 0 0 0 0 0 0 0 0 0 0 0
-1 -44 0 -10 -9 -33 -65 -142 -187 -242 -259 -346 -435 -59 -192 -167 -121 -85 -133 -143 -115 0 0 0 0 -64 -75 0 0 0 0 0 0 0 0 0 0 0 0 0 0 0 0
0 0 0 -96 -38 -13 -77 -172 -268 -319 0 -80 -135 -78 -48 -48 -21 -30 -22 -32 -21 -39 -24 -33 -28 0 -9 -22 0 0 0 0 0 0 0 0 0 0 0 0 0 0 0
0 -10 0 -13 -84 -38 -96 -206 0 0 -124 -37 -15 -22 -52 -30 -14 -18 -23 -37 -19 -18 -17 -19 -14 -9 -7 0 0 0 0 0 0 0 0 0 0 0 0 0 0 0 0
0 0 -39 -42 -17 -20 -137 0 0 0 -11 -8 -12 -15 -18 -15 -17 -46 -22 -15 -16 -18 -12 -9 -4 0 0 0 0 0 0 0 0 0 0 0 0 0 0 -1 0 0 0
-68 -37 -24 -23 -22 -24 0 0 -231 -11 -19 -11 -10 -9 -11 -26 -26 -19 -20 -22 -18 -19 -14 -13 0 0 0 0 0 0 0 0 0 0 0 0 0 0 0 0 0 0 0
-93 -159 -19 -19 -9 -223 0 -251 -95 -37 -15 -7 -11 -21 -22 -25 -39 -28 -33 -26 -12 -6 -4 0 0 0 0 0 0 0 0 0 0 0 0 0 0 0 0 0 0 0 0
-176 -70 -6 -2 -36 -212 0 -70 -40 -19 -18 -21 -11 -1 -48 -35 -29 -24 -16 -4 0 -1 0 0 0 0 0 0 0 0 0 0 0 0 0 0 0 0 0 0 0 -12 -5
-110 -41 -31 -12 -23 -134 -28 -96 -32 -11 -15 -7 -1 -23 -15 -9 -1 0 0 0 0 0 0 0 0 0 0 0 0 0 0 0 0 0 0 0 0 0 0 0 0 0 0
-99 -46 -39 -13 -15 -128 -124 -73 -28 -35 -7 -18 -16 -41 0 0 -4 0 0 0 0 0 0 0 0 0 0 0 0 0 0 0 0 0 0 0 0 0 0 0 0 0 0
-134 -82 -73 -88 -101 -155 -101 -58 -38 -23 -9 -2 -18 0 0 -2 0 0 0 0 0 0 0 0 0 0 0 0 0 0 0 0 0 0 0 0 0 0 0 0 0 0 0
-215 -157 -115 -104 -110 -26 -67 -45 -38 -41 -16 -16 -16 0 0 -4 0 0 0 0 0 0 0 0 0 0 0 0 0 0 0 0 0 0 0 0 0 0 0 0 0 0 0
-224 -150 -124 -121 -170 -26 -55 -41 -33 -34 -22 -24 -19 0 -3 0 0 0 0 0 0 0 0 0 0 0 0 0 0 0 0 0 0 0 0 0 0 0 0 0 0 0 0
-178 -122 -107 -91 -97 -32 -16 -30 -44 -28 -10 -1 -25 -52 0 0 0 0 -4 -1 -6 -1 -1 0 0 0 0 0 0 0 0 0 0 0 0 0 0 0 0 0 0 0 0
-197 -109 -105 -114 -41 -6 -24 -30 -39 -20 -18 -85 0 0 0 0 -5 -5 -6 -5 -1 -1 -2 0 0 0 0 0 0 0 0 0 0 0 0 0 0 0 0 0 0 0 0
Wind_Speed
33 38 43 43 46 47 49 46 50 53 55 58 56 52 42 39 36 30 29 nan nan nan nan nan nan nan nan 28 29 30 29 28 29 30 29 nan nan nan nan nan nan nan nan
35 37 44 44 40 45 48 49 48 51 55 61 56 48 44 40 32 nan nan nan nan nan nan nan nan nan nan nan 31 30 31 30 30 29 28 nan nan nan nan nan 22 nan nan
35 32 32 40 47 50 51 51 51 50 55 52 48 48 44 37 nan nan 24 nan nan nan nan nan nan 27 27 30 32 32 31 32 30 31 nan nan nan nan nan nan nan nan nan
30 29 30 38 45 49 52 52 52 46 50 47 50 50 45 nan nan nan nan nan nan nan nan nan nan 29 32 35 33 33 35 37 33 nan nan nan nan nan nan nan nan nan nan
34 33 37 43 47 49 47 51 48 45 47 44 51 51 47 nan nan nan 25 29 nan nan nan nan nan 33 35 39 36 35 34 35 nan nan nan nan nan nan nan nan nan nan nan
31 37 38 44 48 46 49 50 45 48 44 44 48 48 43 nan nan 22 26 29 29 nan nan nan nan nan 33 36 37 37 nan nan nan nan nan nan nan nan nan nan nan nan nan
34 37 34 41 45 44 46 51 45 46 41 49 48 47 42 20 22 23 26 28 30 nan nan nan nan nan nan nan nan nan nan nan nan nan nan nan nan nan nan nan nan nan nan
33 33 36 42 45 48 43 43 53 46 49 52 46 40 26 20 23 22 25 27 27 30 nan nan nan nan nan nan nan nan nan nan nan nan nan nan 31 nan nan nan nan nan nan
30 34 33 38 43 41 39 48 45 40 48 46 43 42 20 24 19 23 25 25 28 29 32 nan nan nan nan nan nan nan nan nan nan nan nan nan nan nan nan nan nan nan nan
32 32 29 nan nan 54 35 37 47 46 46 43 34 27 23 15 21 21 27 25 27 31 35 31 nan nan nan nan nan nan nan nan nan nan nan nan nan nan nan nan nan nan nan
38 31 31 nan nan 35 28 33 41 44 42 37 29 16 nan nan nan nan nan 27 31 33 32 nan nan nan nan nan nan nan nan nan nan nan nan nan nan nan nan nan nan nan nan
40 nan nan nan nan 37 36 37 44 43 nan nan nan nan nan nan nan nan nan 28 31 nan nan nan nan nan nan nan nan nan nan nan nan nan nan nan nan nan nan nan nan nan nan
nan nan nan nan nan 31 28 31 41 nan nan nan nan nan nan nan nan nan nan nan nan nan nan nan nan nan nan nan nan nan nan nan nan nan nan nan nan nan nan nan nan nan nan
nan nan nan nan nan 24 24 nan nan nan nan nan nan nan 11 15 21 23 23 nan nan nan nan nan nan nan nan nan nan nan nan nan nan nan nan nan nan nan nan nan nan nan nan
nan nan nan nan 26 24 nan nan nan nan nan nan 9 11 18 19 18 nan nan nan nan nan nan nan nan nan nan nan nan nan nan nan nan nan nan nan nan nan nan nan nan nan nan
nan nan nan nan 15 13 nan nan nan nan 12 11 11 13 17 19 22 nan nan nan nan nan nan nan nan nan nan nan nan nan nan nan nan nan nan nan nan nan nan nan nan nan nan
nan nan nan nan 8 nan nan nan nan nan 9 9 9 15 19 20 nan nan nan nan nan nan nan nan nan nan nan nan nan nan nan nan nan nan nan nan nan nan nan nan nan nan nan
nan nan 13 11 10 nan nan nan nan 13 11 10 12 14 15 14 nan nan nan nan nan nan nan nan nan nan nan nan nan nan nan nan nan nan nan nan nan nan nan nan nan nan nan
nan nan 9 10 11 nan nan nan 12 13 11 11 10 10 nan nan nan nan nan nan nan nan nan nan nan nan nan nan nan nan nan nan nan nan nan nan nan nan nan nan nan nan nan
nan nan 13 14 14 nan nan nan 11 11 9 7 10 nan nan nan nan nan nan nan nan nan nan nan nan nan nan nan nan nan nan nan nan nan nan nan nan nan nan nan nan nan nan
2 3 6 9 8 nan nan 8 8 8 6 10 13 nan nan nan nan nan nan nan nan nan nan nan nan nan nan nan nan nan nan nan nan nan nan nan nan nan nan nan nan nan nan
2 4 8 8 10 nan nan 9 8 9 10 14 nan nan nan nan nan nan nan nan nan nan nan nan nan nan nan nan nan nan nan nan nan nan nan nan nan nan nan nan nan nan nan
8 10 10 9 nan nan 9 11 12 13 16 nan nan nan nan nan nan nan nan nan nan nan nan nan nan nan nan nan nan nan nan nan nan nan nan nan nan nan nan nan nan nan nan
9 12 14 16 nan nan 12 14 16 14 nan nan nan nan nan nan nan nan nan nan nan nan nan nan nan nan nan nan nan nan nan nan nan nan nan nan nan nan nan nan nan nan nan
16 14 14 15 nan 10 13 19 19 20 nan 27 nan nan nan nan nan nan nan nan nan nan nan nan nan nan nan nan nan nan nan nan nan nan nan nan nan nan nan nan nan nan nan
17 15 12 12 13 14 16 23 24 26 nan nan nan nan nan nan nan nan nan nan nan nan nan nan nan nan nan nan nan nan nan nan nan nan nan nan nan nan nan nan nan nan nan
Wind_Direction
269 276 283 287 288 291 290 292 299 293 300 300 297 292 296 298 297 290 284 nan nan nan nan nan nan nan nan 292 293 291 288 284 284 281 282 nan nan nan nan nan nan nan nan
278 280 284 286 290 293 295 292 299 302 303 293 296 291 294 292 292 nan nan nan nan nan nan nan nan nan nan nan 296 290 284 281 279 280 279 nan nan nan nan nan 271 nan nan
274 283 290 295 291 287 289 291 293 300 296 292 291 287 288 291 nan nan 273 nan nan nan nan nan nan 289 295 304 300 292 285 282 277 276 nan nan nan nan nan nan nan nan nan
280 280 287 300 300 289 284 287 291 296 291 291 286 282 285 nan nan nan nan nan nan nan nan nan nan 287 289 300 307 302 296 289 282 nan nan nan nan nan nan nan nan nan nan
275 280 281 291 294 291 292 284 284 286 282 287 279 282 282 nan nan nan 268 275 nan nan nan nan nan 288 292 301 303 297 291 284 nan nan nan nan nan nan nan nan nan nan nan
276 278 281 287 291 288 286 281 283 277 276 284 269 278 274 nan nan 254 259 271 279 nan nan nan nan nan 294 301 301 297 nan nan nan nan nan nan nan nan nan nan nan nan nan
277 278 273 287 290 286 285 277 281 276 277 275 263 268 266 256 253 244 260 264 275 nan nan nan nan nan nan nan nan nan nan nan nan nan nan nan nan nan nan nan nan nan nan
276 280 275 287 287 282 285 294 276 277 267 279 259 260 253 238 242 247 250 266 273 280 nan nan nan nan nan nan nan nan nan nan nan nan nan nan 280 nan nan nan nan nan nan
274 275 271 276 282 271 285 264 266 264 271 263 249 247 226 229 232 240 256 262 263 268 277 nan nan nan nan nan nan nan nan nan nan nan nan nan nan nan nan nan nan nan nan
267 265 278 nan nan 263 256 265 255 255 260 253 245 241 227 214 241 250 249 258 265 273 277 276 nan nan nan nan nan nan nan nan nan nan nan nan nan nan nan nan nan nan nan
258 258 261 nan nan 228 252 256 254 261 259 241 243 214 nan nan nan nan nan 270 270 273 275 nan nan nan nan nan nan nan nan nan nan nan nan nan nan nan nan nan nan nan nan
259 nan nan nan nan 230 244 239 246 246 nan nan nan nan nan nan nan nan nan 271 273 nan nan nan nan nan nan nan nan nan nan nan nan nan nan nan nan nan nan nan nan nan nan
nan nan nan nan nan 231 233 256 248 nan nan nan nan nan nan nan nan nan nan nan nan nan nan nan nan nan nan nan nan nan nan nan nan nan nan nan nan nan nan nan nan nan nan
nan nan nan nan nan 233 248 nan nan nan nan nan nan nan 248 245 252 259 273 nan nan nan nan nan nan nan nan nan nan nan nan nan nan nan nan nan nan nan nan nan nan nan nan
nan nan nan nan 212 226 nan nan nan nan nan nan 217 228 243 253 275 nan nan nan nan nan nan nan nan nan nan nan nan nan nan nan nan nan nan nan nan nan nan nan nan nan nan
nan nan nan nan 158 152 nan nan nan nan 191 209 234 256 262 275 282 nan nan nan nan nan nan nan nan nan nan nan nan nan nan nan nan nan nan nan nan nan nan nan nan nan nan
nan nan nan nan 107 nan nan nan nan nan 225 243 277 280 279 277 nan nan nan nan nan nan nan nan nan nan nan nan nan nan nan nan nan nan nan nan nan nan nan nan nan nan nan
nan nan 137 150 159 nan nan nan nan 224 235 263 268 271 280 279 nan nan nan nan nan nan nan nan nan nan nan nan nan nan nan nan nan nan nan nan nan nan nan nan nan nan nan
nan nan 176 198 197 nan nan nan 222 246 253 261 271 268 nan nan nan nan nan nan nan nan nan nan nan nan nan nan nan nan nan nan nan nan nan nan nan nan nan nan nan nan nan
nan nan 215 224 228 nan nan nan 227 248 259 262 263 nan nan nan nan nan nan nan nan nan nan nan nan nan nan nan nan nan nan nan nan nan nan nan nan nan nan nan nan nan nan
147 239 269 272 268 nan nan 252 252 264 238 252 270 nan nan nan nan nan nan nan nan nan nan nan nan nan nan nan nan nan nan nan nan nan nan nan nan nan nan nan nan nan nan
264 254 255 284 296 nan nan 249 248 258 262 267 nan nan nan nan nan nan nan nan nan nan nan nan nan nan nan nan nan nan nan nan nan nan nan nan nan nan nan nan nan nan nan
330 319 320 309 nan nan 277 259 247 248 262 nan nan nan nan nan nan nan nan nan nan nan nan nan nan nan nan nan nan nan nan nan nan nan nan nan nan nan nan nan nan nan nan
308 289 302 298 nan nan 275 276 283 282 nan nan nan nan nan nan nan nan nan nan nan nan nan nan nan nan nan nan nan nan nan nan nan nan nan nan nan nan nan nan nan nan nan
280 290 288 283 nan 274 282 291 295 299 nan 302 nan nan nan nan nan nan nan nan nan nan nan nan nan nan nan nan nan nan nan nan nan nan nan nan nan nan nan nan nan nan nan
272 279 276 292 286 287 298 301 308 311 nan nan nan nan nan nan nan nan nan nan nan nan nan nan nan nan nan nan nan nan nan nan nan nan nan nan nan nan nan nan nan nan nan